Temp
61 61 61 61 61 61 61 60 60 60 59 60 60 60 60 60 59 70 77 81 81 70 72 86 88 87 88 85 88 88 73 70 71 72 73 81 78 84 87 81 84 85 83 83 85
61 62 62 61 61 61 61 60 60 59 59 59 59 59 59 59 70 80 78 70 70 69 84 84 83 86 82 85 85 80 72 73 80 80 77 80 81 80 79 78 78 80 84 84 84
61 61 61 61 61 61 60 60 60 59 59 59 59 59 59 61 73 83 71 72 70 70 87 92 92 87 81 85 83 81 72 78 79 80 83 80 79 83 79 74 79 77 79 81 81
60 60 61 61 61 61 60 60 59 59 59 59 59 59 60 67 67 88 71 73 70 85 88 90 88 81 80 78 84 76 80 81 80 82 82 79 82 79 81 80 86 85 84 82 80
59 59 59 60 61 60 60 59 59 58 58 58 59 60 66 73 81 94 79 75 85 87 89 89 85 85 78 81 82 77 79 81 82 81 81 82 78 79 79 84 87 87 85 82 82
58 58 58 59 60 60 59 58 58 58 57 58 59 59 69 70 95 97 97 96 96 94 92 92 88 89 83 81 79 81 80 79 81 80 80 77 78 79 82 85 84 84 83 83 83
58 58 58 58 58 59 59 58 57 57 57 58 60 68 76 79 97 99 97 95 96 94 89 92 92 86 85 78 84 82 74 77 78 79 77 80 73 74 83 85 82 82 83 84 85
59 58 58 58 58 58 58 57 57 56 58 59 60 72 74 94 96 94 97 94 96 96 93 94 93 87 84 85 80 75 76 67 76 79 79 77 67 79 83 82 80 82 83 84 85
59 58 58 57 57 57 57 57 57 58 59 60 67 74 76 84 88 94 94 90 92 93 92 92 89 83 82 74 70 72 64 68 70 80 78 76 70 79 83 82 80 82 83 83 84
59 59 58 58 57 57 57 58 59 58 63 76 81 75 84 81 88 90 94 91 88 87 84 83 82 76 76 72 58 62 67 70 69 74 75 73 73 79 81 80 79 80 82 82 82
61 59 59 58 58 57 58 69 73 72 79 78 79 79 83 89 92 88 91 88 87 83 73 80 72 67 70 72 73 72 69 68 72 74 70 70 72 76 78 79 78 79 80 81 76
61 60 59 59 58 58 63 76 81 84 72 83 83 83 86 89 80 85 92 80 78 72 78 74 67 73 75 74 72 71 67 67 72 73 69 70 70 74 75 76 78 78 78 76 75
60 60 59 58 57 61 77 81 89 86 74 77 83 81 81 86 79 79 85 83 77 73 74 66 69 75 72 71 68 70 65 64 63 70 72 69 66 68 73 76 77 78 78 77 74
59 60 58 56 61 81 79 86 87 83 66 68 74 79 83 84 74 85 86 81 77 72 74 70 74 71 70 68 68 62 68 66 65 63 57 70 54 65 68 69 72 73 73 73 74
59 61 56 55 70 80 82 86 86 79 47 71 75 88 84 76 78 78 87 81 73 72 72 66 68 68 66 65 69 64 68 66 65 62 62 64 59 63 69 65 67 70 71 72 72
59 59 56 67 73 82 85 84 79 58 46 65 75 73 73 76 76 79 79 83 81 73 74 70 76 71 68 70 70 71 67 67 66 62 50 61 60 55 63 65 68 70 71 72 72
59 57 63 80 75 83 81 77 59 52 71 64 67 73 71 68 71 73 71 69 66 60 60 67 67 72 72 66 71 69 63 49 44 47 45 62 58 58 66 69 70 68 69 70 71
59 59 68 81 83 80 77 67 51 64 65 74 71 71 65 69 68 70 69 64 69 67 65 59 52 66 71 65 62 64 61 47 39 39 46 62 54 56 68 70 71 71 70 70 70
58 74 77 76 79 78 71 55 59 65 72 68 70 64 63 67 68 68 65 63 64 67 59 58 56 68 68 70 68 61 55 63 51 44 42 54 59 64 67 66 68 68 69 69 70
75 75 77 78 79 74 65 56 66 72 74 73 62 67 61 64 64 65 64 66 64 68 71 63 54 65 67 69 69 65 67 52 52 38 38 50 54 51 59 62 65 67 67 68 70
71 70 73 79 76 71 59 63 68 74 74 70 67 64 66 63 66 64 63 65 68 67 70 65 61 58 65 61 59 61 59 59 58 51 40 38 48 63 62 65 63 65 68 67 67
73 63 75 77 65 68 64 68 61 69 72 70 72 69 66 65 63 62 61 62 68 68 61 63 59 49 58 65 67 64 60 59 44 44 46 43 45 67 66 67 66 65 66 67 67
70 69 76 75 58 60 67 68 71 69 70 69 66 69 70 65 57 63 61 65 66 64 58 62 56 47 52 58 64 59 62 60 56 48 41 37 44 67 66 61 64 63 65 63 64
72 61 69 71 73 67 64 64 63 71 68 71 68 70 66 62 66 60 58 62 65 63 52 58 59 53 45 53 59 54 58 61 57 42 43 45 50 59 63 61 62 63 64 63 62
73 66 70 59 64 68 69 68 64 61 70 71 66 67 65 57 61 59 62 60 63 54 61 62 51 55 56 58 59 57 56 57 55 55 45 50 53 59 59 61 61 61 61 61 60
68 68 71 69 70 68 59 65 65 67 66 65 64 67 67 59 62 58 63 62 60 62 61 62 48 48 46 58 56 51 54 55 57 57 56 55 53 64 61 59 57 56 57 58 56
75 76 72 58 67 64 63 66 67 67 66 72 70 66 57 63 66 66 66 66 65 61 57 55 49 44 40 47 45 38 49 56 56 58 56 46 55 58 56 56 56 56 57 54 52
MSLP
1016.09 1016.09 1016.12 1016.05 1016.09 1016.02 1016.01 1015.85 1015.81 1015.70 1015.54 1015.41 1015.30 1015.13 1014.82 1014.43 1013.47 1013.18 1011.69 1010.14 1010.01 1010.04 1010.15 1009.70 1008.92 1008.48 1008.12 1007.20 1006.58 1006.14 1005.39 1004.84 1005.36 1005.45 1006.53 1007.57 1007.44 1007.73 1007.96 1008.37 1008.67 1009.32 1009.49 1011.05 1012.44
1015.74 1015.70 1015.59 1015.71 1015.77 1015.78 1015.70 1015.65 1015.66 1015.49 1015.44 1015.33 1015.23 1015.00 1014.79 1014.45 1013.16 1011.14 1009.96 1009.69 1009.77 1009.97 1009.63 1008.80 1008.10 1007.59 1007.26 1006.41 1005.84 1005.56 1005.11 1004.86 1005.42 1005.81 1006.42 1007.42 1007.36 1007.91 1008.25 1008.85 1009.25 1010.10 1010.80 1011.67 1012.62
1015.18 1015.25 1015.32 1015.38 1015.41 1015.43 1015.39 1015.43 1015.39 1015.24 1015.21 1015.11 1015.00 1014.80 1014.66 1014.32 1012.36 1009.48 1009.20 1009.24 1009.27 1009.46 1008.97 1007.71 1007.09 1006.81 1006.64 1006.18 1005.78 1005.58 1005.45 1005.71 1006.14 1006.74 1006.84 1007.50 1007.70 1008.11 1008.03 1008.49 1009.18 1010.19 1010.89 1012.03 1012.78
1014.86 1014.92 1015.07 1015.15 1015.09 1015.06 1015.08 1015.18 1015.13 1015.04 1015.09 1014.90 1014.71 1014.57 1014.33 1013.61 1010.50 1008.64 1008.68 1008.70 1008.84 1008.89 1008.49 1007.24 1006.58 1006.14 1005.81 1005.76 1005.54 1005.64 1006.23 1006.25 1006.70 1007.31 1007.27 1007.54 1007.77 1007.91 1007.96 1008.08 1008.90 1009.71 1010.59 1011.80 1012.49
1014.55 1014.64 1014.77 1014.78 1014.75 1014.82 1014.84 1014.87 1014.87 1014.84 1014.88 1014.73 1014.57 1014.40 1013.67 1011.88 1008.54 1007.86 1007.91 1008.09 1008.46 1008.35 1007.27 1006.25 1005.66 1005.33 1005.26 1005.44 1005.73 1005.99 1006.60 1006.92 1007.48 1007.95 1007.78 1007.84 1007.94 1008.05 1008.32 1008.94 1009.33 1009.69 1010.56 1011.37 1012.02
1014.20 1014.36 1014.46 1014.47 1014.52 1014.57 1014.58 1014.63 1014.67 1014.72 1014.71 1014.61 1014.39 1014.42 1013.12 1010.21 1007.60 1007.49 1007.43 1007.19 1006.82 1006.67 1006.25 1005.82 1005.52 1005.60 1005.52 1005.65 1005.67 1006.39 1007.00 1007.35 1007.55 1007.74 1008.10 1008.12 1008.07 1008.39 1008.24 1008.88 1009.50 1009.87 1010.19 1010.80 1011.25
1013.91 1014.00 1014.12 1014.22 1014.30 1014.36 1014.43 1014.54 1014.58 1014.58 1014.42 1014.33 1014.28 1013.70 1011.52 1008.74 1007.51 1007.27 1007.38 1007.21 1007.02 1006.68 1006.22 1006.25 1006.13 1005.96 1005.79 1006.17 1006.46 1006.83 1007.14 1007.32 1007.56 1007.87 1008.11 1008.32 1007.90 1008.05 1008.31 1008.74 1009.08 1009.66 1009.86 1010.25 1010.73
1013.56 1013.68 1013.81 1013.99 1014.05 1014.22 1014.34 1014.44 1014.47 1014.33 1014.21 1014.08 1014.08 1013.06 1010.30 1008.13 1007.98 1007.69 1007.32 1007.15 1007.28 1007.08 1006.95 1006.91 1006.72 1006.35 1006.31 1006.69 1007.03 1006.97 1006.70 1006.54 1007.06 1007.46 1007.86 1008.36 1007.23 1007.28 1008.00 1008.39 1008.80 1009.00 1009.63 1009.81 1010.07
1013.29 1013.45 1013.69 1013.79 1013.93 1014.02 1014.15 1014.15 1014.08 1014.02 1013.98 1013.96 1013.70 1012.10 1008.69 1008.40 1007.99 1007.55 1007.74 1007.15 1007.19 1007.32 1007.29 1007.29 1007.03 1006.54 1006.85 1006.71 1006.67 1006.66 1006.19 1006.22 1006.96 1007.26 1007.30 1007.71 1006.92 1007.02 1007.64 1008.09 1008.56 1008.53 1008.97 1009.39 1010.03
1013.11 1013.18 1013.33 1013.54 1013.67 1013.76 1013.91 1014.01 1013.91 1013.80 1013.53 1012.67 1011.55 1010.75 1008.26 1007.59 1007.66 1007.78 1007.69 1007.79 1007.23 1007.24 1007.24 1007.16 1006.75 1006.51 1006.48 1006.45 1006.69 1006.96 1005.95 1006.20 1006.36 1007.35 1007.73 1007.45 1007.04 1006.96 1007.47 1008.10 1008.48 1008.63 1008.82 1009.42 1010.06
1012.94 1013.06 1013.21 1013.38 1013.54 1013.68 1014.01 1013.71 1013.47 1012.64 1011.36 1009.63 1008.92 1008.37 1007.80 1007.79 1007.92 1007.58 1007.70 1007.69 1007.41 1007.30 1006.93 1006.79 1006.51 1006.64 1006.99 1007.37 1007.37 1007.15 1006.73 1006.59 1006.94 1007.94 1008.16 1007.80 1007.30 1007.15 1007.83 1008.26 1008.39 1008.56 1008.91 1009.67 1011.13
1012.85 1012.95 1013.15 1013.34 1013.49 1013.76 1013.78 1011.37 1009.68 1009.12 1009.37 1008.82 1008.46 1008.23 1008.10 1007.55 1007.48 1007.58 1007.78 1007.56 1007.43 1007.00 1006.69 1006.85 1006.85 1007.75 1007.78 1007.79 1007.93 1007.80 1007.63 1007.50 1007.62 1008.41 1008.88 1007.99 1007.74 1007.95 1008.70 1009.12 1008.94 1009.32 1009.89 1010.89 1012.25
1012.78 1012.77 1012.97 1013.29 1013.57 1013.57 1011.71 1010.00 1009.13 1009.02 1008.58 1008.61 1008.23 1008.03 1008.12 1007.64 1007.50 1007.70 1007.82 1007.31 1007.16 1006.78 1006.92 1007.58 1008.21 1008.34 1008.32 1008.33 1008.54 1008.07 1008.55 1008.93 1009.19 1009.00 1008.71 1008.55 1008.18 1008.51 1009.61 1010.02 1010.01 1010.38 1011.05 1011.92 1013.08
1012.46 1012.51 1012.87 1013.32 1013.74 1011.10 1010.23 1009.68 1009.49 1009.56 1008.69 1008.95 1008.28 1008.15 1008.13 1007.76 1008.22 1008.27 1008.19 1007.93 1007.28 1006.94 1007.28 1008.08 1008.96 1008.89 1008.92 1008.99 1009.64 1009.28 1009.93 1010.12 1009.94 1009.55 1008.49 1008.39 1008.24 1008.55 1009.90 1010.69 1011.09 1011.55 1012.23 1013.06 1013.87
1012.46 1012.54 1012.80 1012.82 1012.34 1010.23 1010.09 1009.71 1009.71 1009.66 1008.68 1008.54 1007.90 1008.04 1008.01 1008.11 1008.11 1008.33 1008.40 1008.08 1007.51 1007.83 1008.38 1008.79 1009.20 1009.30 1009.38 1010.04 1010.43 1010.12 1010.61 1010.53 1010.36 1009.94 1009.34 1008.49 1008.54 1008.63 1009.70 1010.79 1011.66 1012.42 1013.14 1014.05 1014.83
1012.51 1012.42 1012.87 1012.89 1011.85 1010.58 1010.17 1010.07 1010.03 1009.74 1008.56 1008.33 1008.00 1007.83 1007.98 1008.19 1008.15 1008.29 1008.42 1008.33 1008.30 1008.39 1008.62 1009.42 1009.96 1010.27 1010.49 1010.65 1010.76 1010.78 1010.52 1010.25 1010.34 1010.11 1009.71 1008.99 1008.80 1010.05 1010.10 1010.57 1011.89 1012.91 1013.74 1014.51 1015.29
1012.37 1012.42 1012.55 1011.32 1010.94 1010.74 1010.66 1010.38 1009.85 1008.60 1008.29 1008.27 1007.92 1007.91 1008.14 1008.55 1008.48 1008.50 1008.64 1008.73 1008.66 1008.94 1009.25 1009.75 1010.22 1010.81 1011.11 1010.65 1010.63 1010.52 1010.33 1010.37 1011.10 1010.47 1010.63 1010.22 1009.84 1010.49 1011.19 1011.51 1012.05 1013.28 1014.22 1015.09 1015.77
1012.24 1012.36 1011.88 1011.28 1011.15 1011.19 1010.95 1010.37 1009.27 1007.96 1007.68 1007.69 1008.09 1008.24 1008.46 1008.89 1009.21 1009.03 1009.09 1009.50 1009.89 1009.79 1009.13 1009.63 1010.82 1011.10 1011.48 1011.50 1011.37 1011.11 1011.38 1011.92 1012.30 1012.57 1012.26 1011.12 1010.37 1011.34 1012.04 1012.78 1013.13 1013.85 1014.69 1015.47 1016.08
1012.30 1012.06 1011.45 1011.76 1011.64 1011.51 1010.93 1009.88 1008.44 1008.06 1007.74 1008.03 1008.22 1008.36 1008.88 1009.25 1009.34 1009.43 1009.91 1010.55 1011.38 1011.08 1010.50 1010.36 1011.18 1012.00 1012.22 1012.15 1012.08 1011.78 1012.12 1013.07 1013.39 1014.19 1013.83 1012.11 1011.84 1012.38 1012.90 1013.41 1013.81 1014.35 1014.79 1015.28 1015.83
1012.01 1011.61 1011.14 1011.58 1011.68 1011.55 1010.89 1009.51 1008.70 1008.58 1007.95 1008.10 1008.01 1008.21 1008.46 1009.10 1009.56 1009.71 1010.49 1011.74 1011.95 1012.16 1011.72 1011.79 1011.83 1012.41 1012.53 1012.57 1012.53 1012.37 1013.06 1013.21 1013.98 1014.69 1014.51 1013.07 1012.54 1012.99 1013.34 1013.73 1014.23 1014.53 1014.92 1015.37 1015.82
1012.20 1011.29 1011.51 1011.33 1011.69 1011.13 1010.19 1009.46 1009.28 1009.11 1008.89 1008.44 1008.06 1008.57 1008.40 1009.25 1009.49 1010.09 1011.06 1012.48 1012.49 1012.70 1012.62 1012.81 1012.65 1013.14 1012.93 1012.78 1012.75 1012.82 1012.92 1013.96 1014.68 1015.50 1015.74 1015.06 1013.95 1013.74 1013.73 1013.88 1014.52 1014.99 1015.19 1015.66 1016.28
1011.51 1011.06 1011.29 1011.36 1011.35 1010.52 1009.67 1009.44 1010.08 1009.77 1009.55 1009.16 1008.79 1008.87 1009.18 1009.94 1010.25 1010.93 1011.82 1012.73 1013.62 1013.51 1013.57 1014.21 1013.95 1013.72 1013.31 1013.87 1013.84 1013.81 1013.96 1014.59 1015.59 1016.28 1016.34 1015.99 1014.88 1014.14 1014.26 1014.52 1015.03 1015.44 1015.89 1016.60 1017.14
1010.91 1010.64 1011.35 1011.18 1010.44 1010.03 1009.96 1009.88 1009.64 1009.76 1009.58 1009.64 1009.76 1009.87 1010.06 1010.45 1011.34 1011.72 1013.03 1014.33 1014.50 1014.61 1015.15 1015.08 1014.70 1014.37 1014.11 1014.65 1014.31 1014.15 1014.39 1015.15 1016.09 1017.10 1017.15 1016.69 1015.44 1014.37 1014.53 1015.98 1015.96 1016.43 1016.75 1017.42 1017.99
1010.28 1010.13 1010.77 1010.96 1009.92 1009.68 1009.71 1009.92 1010.11 1010.09 1010.20 1010.06 1010.20 1010.50 1010.73 1011.26 1011.62 1012.34 1013.68 1014.75 1015.27 1015.82 1016.20 1016.06 1015.35 1015.38 1015.31 1014.93 1014.91 1014.74 1014.76 1015.00 1015.45 1016.15 1016.43 1016.31 1015.56 1015.06 1014.97 1015.63 1016.50 1016.82 1017.39 1017.96 1018.29
1009.95 1009.48 1009.61 1009.98 1009.88 1009.31 1009.34 1009.38 1009.82 1010.37 1010.41 1010.55 1010.62 1010.67 1011.07 1011.66 1012.08 1012.76 1013.74 1015.02 1015.65 1016.48 1016.46 1016.24 1016.40 1016.44 1016.42 1016.17 1015.81 1015.46 1015.15 1015.05 1015.17 1015.40 1015.58 1015.51 1015.14 1015.11 1015.75 1016.38 1016.97 1017.61 1018.17 1018.47 1018.78
1010.11 1009.35 1009.59 1009.14 1009.60 1009.47 1009.49 1009.36 1009.44 1009.80 1010.44 1010.45 1010.56 1010.99 1011.58 1012.38 1012.77 1013.07 1013.70 1014.38 1015.01 1016.20 1016.33 1016.97 1017.67 1018.08 1017.72 1016.91 1016.78 1016.19 1015.61 1015.28 1015.03 1014.91 1015.02 1015.40 1015.53 1015.58 1016.79 1017.57 1018.31 1018.95 1019.20 1019.18 1019.71
1010.30 1009.81 1009.52 1010.08 1009.67 1009.62 1009.81 1009.59 1009.58 1010.30 1011.08 1010.48 1010.65 1011.46 1012.59 1013.39 1013.88 1014.24 1014.68 1015.08 1015.47 1016.13 1016.85 1017.70 1018.51 1019.15 1019.17 1018.72 1017.87 1016.78 1015.89 1015.34 1015.30 1015.44 1015.72 1015.83 1016.26 1016.92 1017.87 1018.35 1018.86 1019.30 1019.63 1020.29 1020.81
Wind_Speed
13 14 14 12 12 13 13 12 13 13 14 14 14 14 15 16 20 7 10 2 2 5 2 10 9 11 12 15 12 18 12 7 7 9 11 7 5 3 7 8 6 6 8 20 17
15 14 15 14 14 13 12 13 13 11 13 13 13 14 13 13 9 13 5 4 7 9 6 10 11 12 10 11 7 9 8 11 11 10 11 8 5 8 6 9 8 9 19 18 15
14 14 15 13 11 13 12 12 12 12 12 12 12 13 12 12 7 6 5 5 6 9 11 13 7 12 16 6 9 6 9 9 8 8 6 7 11 5 6 7 12 13 14 15 14
14 13 14 14 11 12 12 12 12 11 11 11 12 13 12 6 1 6 9 8 8 9 15 12 11 16 8 10 3 2 5 8 12 3 2 7 11 3 2 10 8 15 14 16 13
14 12 13 13 11 12 12 12 12 10 10 10 12 12 8 7 3 9 6 10 9 10 13 12 14 7 5 5 5 7 5 10 8 5 4 6 6 4 0 8 3 12 12 14 12
12 11 11 11 11 12 11 11 8 8 9 10 11 11 5 11 3 0 4 8 11 11 7 6 4 5 3 7 3 9 8 9 8 7 4 5 7 6 8 13 8 6 12 11 13
10 11 10 10 10 12 11 8 7 8 11 11 9 7 8 7 2 4 2 6 7 10 9 6 9 7 3 5 2 6 7 6 6 7 7 6 7 11 10 8 11 10 7 12 12
10 9 9 10 9 10 10 10 10 11 12 10 8 5 8 1 10 5 6 5 3 5 4 0 6 10 5 7 5 9 8 9 11 10 6 8 10 14 11 10 9 13 11 9 11
8 9 9 9 9 9 10 11 11 11 9 6 7 7 7 4 7 3 5 8 3 3 1 1 6 5 2 8 8 9 9 8 9 9 2 12 13 14 13 7 8 7 9 9 7
7 8 8 9 9 10 10 7 7 7 8 8 11 10 6 2 4 1 2 6 4 3 5 5 6 8 10 9 2 13 10 4 5 9 6 10 10 9 7 3 8 10 9 11 9
5 7 8 9 10 9 6 5 6 5 11 7 12 4 5 5 4 6 3 6 6 7 10 8 9 4 13 9 7 10 7 7 13 7 3 9 10 4 9 6 3 4 3 6 18
3 5 8 9 9 7 6 8 5 4 8 2 4 5 3 5 6 6 6 8 6 11 4 5 2 8 5 8 6 6 6 7 5 6 3 10 9 10 7 7 5 7 6 15 16
3 5 7 6 6 4 10 6 6 10 6 5 3 6 1 7 4 4 4 7 8 11 6 10 11 5 5 2 8 5 5 9 8 11 10 12 11 13 9 4 9 11 11 14 12
2 2 6 8 1 9 8 2 5 5 5 7 8 5 5 3 4 2 4 5 2 3 2 9 4 3 1 3 7 7 7 6 9 9 9 12 7 13 14 10 11 12 11 10 11
2 3 10 16 10 6 4 3 4 3 4 5 6 3 5 4 9 5 2 5 5 2 4 7 4 1 2 8 6 5 5 7 9 10 11 12 7 15 16 13 12 11 11 10 10
2 4 8 5 5 4 4 4 2 5 4 6 6 8 8 5 1 5 4 3 4 3 4 8 3 7 7 4 3 7 10 11 8 9 3 12 1 4 3 13 13 12 10 8 9
6 10 6 7 3 3 3 3 5 4 6 8 10 8 10 6 5 7 6 4 5 5 6 6 6 6 5 10 6 6 9 4 2 3 1 4 3 9 10 8 11 11 11 9 7
4 5 2 4 4 3 3 6 6 5 5 9 11 9 7 8 4 2 10 8 9 10 5 9 7 4 5 6 7 4 6 2 4 5 4 4 3 9 12 9 10 11 10 8 7
2 3 3 2 3 2 5 6 2 5 9 7 11 8 5 4 2 3 11 9 6 9 7 4 8 6 6 6 7 5 6 3 1 3 2 6 13 13 12 9 8 8 4 5 3
4 4 4 2 1 3 4 7 1 6 1 10 9 4 8 8 8 7 4 2 4 8 5 5 4 4 3 3 3 5 1 2 3 2 3 9 7 7 7 6 6 5 4 5 4
3 5 4 4 1 5 6 4 1 1 6 5 4 4 2 6 3 4 5 6 5 5 6 7 4 5 5 6 8 1 2 2 4 0 2 3 1 8 7 5 3 5 7 7 7
3 6 4 4 6 6 8 2 1 7 3 2 4 2 3 4 2 5 10 9 4 4 5 4 2 1 8 5 3 3 4 3 1 3 1 2 7 8 4 6 10 10 11 7 9
5 5 3 3 5 4 4 5 4 7 7 5 2 1 3 5 3 6 8 4 4 7 5 5 1 2 8 5 5 2 3 2 3 2 4 5 5 4 8 14 12 8 9 11 8
5 4 4 5 8 11 8 7 5 4 4 0 5 4 5 5 3 6 9 4 5 8 3 3 1 1 2 5 6 7 9 10 10 4 6 9 14 14 10 8 3 7 9 9 8
5 5 7 7 7 6 11 9 10 6 5 6 5 6 6 3 6 5 11 8 5 3 2 3 0 4 7 8 7 10 12 12 13 12 10 11 14 10 10 8 12 13 12 12 13
5 1 3 3 11 9 5 6 10 7 8 8 4 7 8 6 3 7 6 5 4 4 2 4 1 4 3 3 10 14 15 13 12 11 10 11 13 8 12 14 13 12 12 12 11
2 2 2 2 4 6 6 9 9 9 2 5 6 7 11 13 12 11 10 8 6 4 4 2 1 2 2 10 10 2 3 7 9 11 10 6 8 12 8 9 12 10 10 9 10
Wind_Direction
280 277 274 271 274 274 275 278 281 285 292 301 308 310 313 314 306 202 240 308 229 147 276 267 233 245 242 256 239 258 263 128 133 168 122 152 142 25 21 92 81 33 132 124 137
279 275 273 269 270 268 267 270 274 280 289 298 303 307 315 321 279 257 225 172 167 176 224 231 224 222 224 239 256 277 319 97 55 49 120 179 142 107 186 121 113 85 105 123 146
280 274 268 264 264 263 263 265 271 279 290 298 301 310 314 316 272 142 194 170 166 178 250 267 223 210 227 204 242 271 86 83 73 25 115 136 95 144 165 179 142 145 139 143 158
279 269 266 263 259 259 259 262 267 277 287 297 305 311 311 265 309 94 177 176 167 205 235 226 218 225 199 203 223 35 40 93 80 35 68 146 121 186 83 89 129 143 156 156 171
271 264 258 256 254 254 255 259 264 278 287 297 303 317 298 238 60 124 242 178 189 212 243 215 229 224 231 145 198 98 104 87 109 143 1 58 128 55 196 103 113 125 154 157 175
266 257 249 246 246 249 251 256 264 274 283 288 297 310 254 269 62 268 348 280 234 229 240 266 340 331 146 159 176 123 140 134 148 132 139 208 134 211 162 142 179 156 163 167 175
260 251 244 236 236 242 246 248 262 273 274 279 296 282 265 300 332 347 215 343 353 334 323 21 322 235 33 78 35 141 159 157 168 150 150 231 227 212 134 191 169 174 204 177 182
255 245 237 230 226 231 240 245 250 254 265 276 287 265 265 90 339 223 322 217 265 309 17 103 277 295 322 94 206 199 229 197 157 164 170 213 246 185 150 171 204 187 203 207 172
245 236 220 219 217 212 217 230 242 251 249 264 226 233 244 132 220 57 272 303 137 221 12 223 241 209 209 206 196 213 232 182 151 180 194 209 283 135 171 196 249 254 189 190 198
232 226 214 210 210 212 219 230 228 269 222 228 261 239 228 133 67 324 230 275 229 162 200 233 226 198 211 218 343 315 218 145 201 150 208 271 258 158 93 301 265 249 214 182 186
226 210 207 206 207 202 174 205 197 186 226 247 171 259 134 88 170 213 143 199 254 209 233 210 253 49 32 28 354 333 4 335 89 89 335 258 277 50 43 262 225 213 69 79 81
180 185 189 197 197 189 253 240 29 16 162 352 72 64 7 336 140 134 175 222 206 231 212 227 121 55 27 21 349 316 338 315 49 68 295 280 231 101 72 357 72 88 98 91 87
183 173 183 169 146 183 242 345 345 356 131 137 43 111 70 270 57 105 291 247 214 246 212 67 54 53 6 47 339 253 329 23 332 326 268 268 262 127 116 104 97 86 91 94 98
88 154 156 126 178 210 222 336 19 345 171 142 198 120 181 156 121 319 298 303 272 260 135 64 51 23 300 69 352 323 36 322 290 281 286 178 292 142 147 137 112 96 81 83 89
114 162 166 201 312 205 41 11 359 269 162 178 108 84 144 267 136 113 158 243 263 138 277 107 135 62 289 27 345 17 341 296 287 274 274 263 235 140 152 154 131 118 99 78 61
164 170 149 215 236 22 24 344 288 244 136 151 151 166 161 162 46 118 140 359 354 157 82 81 61 38 10 310 300 309 266 248 257 249 268 262 297 58 148 133 136 115 96 95 113
142 140 185 308 359 24 338 224 234 288 150 144 158 192 134 131 137 157 151 134 290 160 172 163 81 108 342 290 198 299 320 275 290 192 314 4 288 92 121 81 124 124 118 90 67
143 142 264 36 348 6 262 230 252 49 164 128 147 141 149 139 126 155 154 120 40 321 213 191 146 342 29 16 349 345 313 48 325 359 334 280 300 114 110 100 95 85 97 130 124
98 189 215 80 303 299 250 224 134 263 121 168 160 170 150 161 182 124 55 66 24 15 358 318 99 103 56 3 345 353 56 358 246 33 306 263 99 104 118 124 128 113 122 115 89
203 193 168 129 297 253 244 255 42 348 171 175 184 237 173 163 179 192 165 31 97 17 339 47 131 30 83 251 87 39 5 305 20 319 315 337 9 72 171 154 71 232 96 23 348
249 212 111 143 241 224 228 222 155 158 321 223 238 190 135 149 191 140 91 104 18 72 47 353 329 117 233 28 15 128 63 6 326 358 303 313 14 43 1 69 52 356 344 20 26
220 221 141 158 195 221 233 124 303 166 237 58 354 143 145 141 100 79 113 54 55 332 52 37 64 299 67 79 22 358 3 326 110 319 231 236 275 301 49 20 8 0 15 0 38
217 129 151 209 209 239 124 123 205 170 184 179 110 20 74 138 105 113 100 74 30 33 32 353 83 260 144 154 169 308 32 309 123 102 252 257 280 246 73 344 5 354 21 62 25
247 120 146 204 272 193 190 169 145 328 111 167 118 161 142 143 102 139 119 118 64 77 331 309 91 1 339 336 343 310 303 290 276 199 243 257 285 300 316 18 329 6 35 15 26
257 175 166 183 241 247 182 180 166 169 205 179 179 183 160 147 141 149 124 134 150 139 176 342 226 6 325 319 310 305 298 292 281 278 265 277 286 324 23 343 33 25 1 347 345
306 132 178 147 204 220 109 206 189 175 170 185 206 194 162 142 187 171 157 172 141 162 133 50 108 16 262 316 345 304 302 285 278 298 293 322 310 10 50 31 17 355 333 337 14
77 301 233 318 194 198 170 231 201 120 284 232 187 130 72 68 62 59 57 51 74 142 144 59 84 46 268 347 316 343 257 333 323 322 315 296 281 45 12 8 0 338 347 1 348